Regional Weather Roundup
Issued by NWS Portland, ME

Home | Current Version | Previous Version | Text Only | Print | Product List | Glossary On
Versions: 1 2 3 4 5 6 7 8 9 10 11 12 13 14 15 16 17 18 19 20 21 22 23 24 25 26 27 28 29 30 31 32 33 34 35 36 37 38 39 40 41 42 43 44 45 46 47 48 49 50
000
ASUS41 KGYX 031410
RWRGYX
WEATHER ROUNDUP FOR MAINE AND NEW HAMPSHIRE
NATIONAL WEATHER SERVICE GRAY ME
900 AM EST SAT DEC 03 2016

MEZ002-005-006-010-012-015-018-020-021-024-026-027-029-031500-
MAINE

CITY           SKY/WX    TMP DP  RH WIND       PRES   REMARKS
PORTLAND       MOSUNNY   41  28  60 W12G20    29.79R
SANFORD        MOSUNNY   40  28  62 NW12      29.81R
BAR HARBOR     CLOUDY    36  33  89 N8        29.71R
WISCASSET      PTSUNNY   41  28  60 VRB6      29.78R
ROCKLAND       CLOUDY    37  29  72 VRB6      29.73R
FRYEBURG       MOSUNNY   39  25  57 W9        29.79R
LEWISTONAUBURN CLOUDY    38  28  67 NW10      29.78R
AUGUSTA        CLOUDY    36  25  64 N12G23    29.76R
WATERVILLE     SUNNY     36  26  67 NW8G16    29.74R
BANGOR         PTSUNNY   35  31  85 N17G23    29.73R
GREENVILLE       N/A     28  25  88 N13G23    29.69R WCI  17
MILLINOCKET    MOSUNNY   32  27  81 N8        29.74R
HOULTON        CLOUDY    29  27  92 N9        29.72R
PRESQUE ISLE   CLOUDY    29  26  89 N7        29.74R
FRENCHVILLE    NOT AVBL
CARIBOU        CLOUDY    28  24  85 N7        29.73R
$$

NHZ002-005-008-009-011-012-014-031500-
NEW HAMPSHIRE

CITY           SKY/WX    TMP DP  RH WIND       PRES   REMARKS
PORTSMOUTH     MOSUNNY   41  28  58 NW15G23   29.81R
ROCHESTER      SUNNY     40  27  59 NW16G25   29.80R
NASHUA         CLOUDY    40  27  59 NW16G26   29.86R
MANCHESTER     PTSUNNY   40  26  57 NW15      29.84R
CONCORD        CLOUDY    41  27  57 NW9       29.84R
LACONIA        PTSUNNY   39  27  62 W5        29.83R
PLYMOUTH         N/A     36  29  77 NW10G16   29.83R
BERLIN         CLOUDY    34  27  75 VRB6      29.78
WHITEFIELD     CLOUDY    33  27  78 NW5       29.82R
JAFFREY        MOSUNNY   37  24  59 NW10      29.85R
KEENE          CLOUDY    37  26  64 CALM      29.89R
LEBANON        CLOUDY    37  29  72 NW3       29.87R
MT WASHINGTON  SNOWSHWR  12  12 100 NW47G61     N/A  VSB 0   WCI -13
$$

VTZ005-007-008-031500-
VERMONT

CITY           SKY/WX    TMP DP  RH WIND       PRES   REMARKS
ST JOHNSBURY     N/A     36  30  79 MISG      29.84R
MONTPELIER     LGT SNOW  32  30  92 NW12      29.90R FOG
BURLINGTON     FLURRIES  37  29  72 NW15      29.92R
$$

MAZ007-012-024-CTZ003-RIZ002-NYZ038-NYZ072-031500-
SOUTHERN NEW ENGLAND AND NY

CITY           SKY/WX    TMP DP  RH WIND       PRES   REMARKS
BOSTON         MOSUNNY   41  27  57 W20G29    29.85R
WORCESTER      SUNNY     36  24  62 W14G28    29.84R
NANTUCKET      SUNNY     43  28  55 NW22G31   29.83R
PROVIDENCE     MOSUNNY   42  25  50 NW15G25   29.88R
HARTFORD       MOSUNNY   41  25  53 NW20G25   29.93R
ALBANY         CLOUDY    38  27  64 W16G22    29.99R
NEW YORK CITY  PTSUNNY   44  28  53 NW29G37   30.01S
$$

ANZ081-ANZ082-ANZ150-NHZ014-MEZ023>029-031500-
COASTAL MARINE OBSERVATIONS

STATION/POSITION TIME  TEMP    WIND        PRES    WAVE
                       AIR SEA DIR/SP/G            HT/PER
                 (UTC) (F)     (DEG/KT/KT) (MB)    (FT/S)
MOUNT DESERT ROC 1300   39                 1004.5R
MATINICUS ROCK   1300   39     320/ 26/ 31 1005.0R
ISLE OF SHOALS   1300   39     300/ 23/ 27 1008.2R
JEFFREYS LEDGE   1338      51                N/A     5/ 5
CASHES LEDGE BUO 1250   43 51  300/ 23/ 29 1005.6    6/ 6
GEORGES BANK BUO 1250   47 52              1003.2    9/ 8
$$

.............KEY..............
   WCI - WIND CHILL
   TC  - TEMPERATURE IN CELSIUS
   VSB - VISIBILITY IN MILES
   HX  - HEAT INDEX
   FAIR- INDICATES FEW OR NO CLOUDS BELOW 12,000 FT, WITH NO
         SIGNIFICANT WEATHER AND/OR OBSTRUCTIONS TO VISIBILITY.





USA.gov is the U.S. government's official web portal to all federal, state and local government web resources and services.